RH
91 87 92 95 94 94 98 99 100 99 100 100 100 100 86 79 63 51 58 57 65 52 48 48 52 50 45 43 42 50 49 64 68 51 42 38 47 54 58 90 84 88 88 74
93 94 93 95 97 96 99 100 100 98 100 100 100 98 85 74 57 50 66 62 47 46 44 48 43 54 54 49 48 52 47 73 82 61 47 45 47 49 51 64 81 85 92 82
94 93 95 95 96 93 96 100 100 100 99 99 91 99 92 94 77 70 58 43 39 39 44 52 59 67 54 60 51 59 55 65 69 69 59 56 54 48 42 66 92 87 86 66
96 96 96 96 96 92 96 100 100 92 99 100 98 91 95 97 98 84 73 63 56 54 58 67 74 63 60 58 57 57 59 77 75 73 61 57 60 56 50 46 54 80 61 50
96 97 97 95 93 92 98 100 100 98 99 98 98 98 100 99 96 92 96 74 58 67 79 71 79 71 71 64 58 64 67 94 88 82 68 58 61 52 52 51 47 49 47 43
92 93 92 92 94 91 100 99 97 96 100 100 98 99 99 98 92 92 74 70 71 68 55 55 61 67 64 64 63 72 77 84 83 74 70 69 66 59 52 48 44 50 66 44
75 76 81 81 81 77 95 95 93 97 99 100 99 97 94 96 92 97 83 68 75 60 46 39 37 36 37 51 62 59 79 78 80 78 62 82 44 35 33 38 36 36 30 31
78 79 81 78 75 68 80 88 76 93 99 89 96 95 97 94 96 96 72 65 57 49 54 78 71 68 54 41 38 46 58 76 86 87 82 58 43 33 33 39 40 52 52 59
80 82 82 80 71 72 80 83 89 82 92 91 69 86 84 95 98 94 78 51 49 59 85 88 78 80 63 50 39 32 44 61 80 79 84 76 59 32 28 30 48 61 60 62
81 81 80 81 79 72 73 80 86 76 92 64 76 93 87 74 86 95 79 56 54 61 94 97 90 69 42 57 60 56 72 84 78 87 81 69 49 34 32 54 45 61 60 62
81 79 79 81 81 77 72 73 79 75 88 68 62 66 67 68 74 85 67 70 71 86 89 92 90 84 60 55 61 53 54 68 76 86 83 75 40 38 47 60 66 64 63 63
82 78 80 83 81 76 69 78 77 75 81 69 62 56 58 57 59 66 66 72 77 85 89 91 91 88 81 60 67 50 69 64 73 62 69 54 44 49 54 54 52 62 67 61
82 78 81 82 79 74 73 87 90 85 90 79 67 62 53 46 54 58 77 76 65 70 74 94 94 75 73 83 78 58 52 46 72 62 54 50 46 51 43 51 63 63 62 54
81 80 81 83 81 78 77 92 93 88 89 93 81 52 59 53 49 53 61 62 63 68 77 94 96 90 70 82 74 75 62 56 60 68 56 51 45 46 46 42 42 40 40 39
78 76 76 77 78 78 88 97 95 86 83 95 91 65 52 57 57 56 62 64 70 82 88 94 92 84 84 95 87 82 62 64 73 57 57 54 57 51 51 49 44 42 39 45
81 77 76 77 79 82 86 96 91 86 92 93 89 79 64 65 65 65 66 72 79 86 93 95 87 69 81 95 87 45 46 52 57 57 55 56 53 50 44 42 40 42 45 50
84 82 80 78 77 94 98 96 92 85 92 96 95 94 73 64 74 94 88 81 96 90 97 97 93 88 84 98 73 41 44 54 53 50 55 63 56 55 47 45 40 44 42 66
86 83 83 80 76 80 93 98 90 87 97 96 96 93 87 75 97 96 99 100 98 96 96 98 96 90 97 99 64 58 54 51 52 54 51 50 46 46 46 49 58 58 55 80
83 77 68 76 87 97 95 80 83 96 92 96 96 92 94 94 100 97 97 98 98 97 97 98 93 97 96 76 70 70 63 62 55 53 54 53 57 53 73 82 84 84 83 91
79 84 91 98 97 84 76 91 95 97 96 98 93 94 97 94 99 100 98 96 84 99 95 95 97 95 69 60 55 58 61 60 57 67 67 69 76 78 80 83 81 84 77 85
95 96 99 99 84 93 98 97 97 98 93 98 96 91 99 91 96 99 98 98 97 98 94 92 96 94 78 65 74 72 67 60 52 50 49 64 67 69 80 81 88 90 88 86
88 94 91 96 93 94 96 98 95 99 92 95 92 91 86 92 92 96 99 97 98 93 96 96 94 92 88 87 91 93 93 93 82 63 51 63 57 66 64 82 93 97 96 92
90 95 86 81 94 98 97 99 93 95 90 92 96 95 94 95 97 98 98 98 96 97 98 93 90 98 99 93 91 94 88 89 90 92 92 94 97 95 98 98 98 95 96 95
95 82 97 88 100 97 94 92 94 90 98 97 97 98 95 99 95 94 97 89 94 99 96 81 99 96 98 94 88 89 96 94 94 97 97 99 99 99 98 98 95 93 96 96
88 82 98 98 92 97 98 99 97 98 92 96 95 96 96 99 98 95 85 90 97 90 92 99 99 91 90 97 92 91 94 95 94 96 98 98 99 98 99 98 97 95 94 94
97 98 93 96 95 99 98 97 98 97 99 98 96 95 98 94 96 92 91 79 86 90 99 99 96 94 98 98 92 94 89 89 90 89 97 98 99 99 99 98 97 95 93 94
92 93 98 99 97 96 97 95 96 94 95 96 97 96 84 95 96 91 87 90 95 99 99 98 89 90 94 98 96 92 89 87 86 97 98 99 98 98 96 98 97 94 95 93
Wind_Speed
24 23 24 25 26 29 26 5 8 2 2 13 2 11 12 9 15 3 6 2 15 6 12 17 14 12 10 7 11 12 5 6 5 5 2 3 2 4 6 6 5 4 4 6
22 23 27 26 28 36 9 7 3 0 5 14 5 5 6 6 12 13 12 11 2 13 7 6 14 6 3 4 5 10 7 2 3 4 3 4 4 3 4 5 3 4 4 6
20 22 23 27 33 30 8 6 7 2 2 1 11 9 9 6 5 5 2 7 6 4 3 1 7 5 2 2 5 8 7 4 4 9 4 4 4 1 3 5 4 2 4 7
26 25 27 25 20 15 6 1 5 3 8 4 8 8 7 10 5 4 3 3 4 3 5 2 5 4 5 6 5 5 6 5 4 4 4 3 1 3 5 2 3 5 7 10
24 24 22 21 19 15 4 5 4 2 6 9 14 5 4 6 8 7 6 1 7 11 4 3 5 8 3 5 3 4 2 4 4 2 3 3 4 4 5 7 7 7 7 15
22 20 23 18 12 6 3 1 1 3 4 6 5 5 6 10 10 2 9 6 12 13 4 3 3 5 6 6 7 4 5 6 3 2 1 5 7 5 9 4 4 5 5 11
22 19 14 11 11 9 5 3 3 3 5 5 4 13 11 14 8 6 3 6 8 5 2 3 9 11 10 9 6 5 7 7 4 4 4 3 6 0 3 4 7 1 6 6
20 18 16 15 17 16 5 1 4 4 5 7 12 14 11 14 12 5 7 6 4 6 6 5 5 5 5 4 0 3 5 6 4 6 4 4 9 6 5 4 5 2 3 1
19 18 19 17 15 13 6 4 1 5 8 0 10 11 14 8 5 3 1 5 5 6 4 3 4 6 5 5 3 5 4 4 5 4 4 9 4 3 6 4 8 3 2 2
19 19 20 21 17 14 5 3 5 6 6 4 5 4 7 6 4 4 3 5 5 5 3 2 2 3 4 7 8 6 5 1 6 3 4 7 7 5 5 5 8 5 6 5
18 19 20 19 16 13 6 1 4 5 5 5 7 4 4 5 4 5 7 5 4 4 4 4 5 4 4 3 4 7 8 8 5 3 3 10 6 3 10 8 4 6 5 4
17 18 20 20 16 13 7 5 4 4 7 3 2 6 2 4 4 8 3 5 4 5 4 1 3 1 2 5 4 2 4 7 6 10 9 6 4 5 1 5 6 5 3 3
17 18 19 20 20 16 8 3 4 5 5 4 4 5 4 8 7 3 6 2 4 3 3 4 3 2 2 3 4 2 2 3 4 2 3 5 5 1 4 5 5 4 3 3
14 15 16 18 17 18 12 5 4 5 4 5 3 2 5 3 9 9 7 7 5 5 4 3 3 2 2 3 2 3 5 3 1 4 4 5 5 6 4 3 4 5 2 4
14 14 14 15 14 12 9 5 4 2 6 5 2 4 4 6 7 10 9 7 5 3 3 3 2 0 3 2 2 6 5 6 5 10 6 4 6 3 2 3 4 6 7 7
11 12 13 14 12 6 4 4 4 5 2 6 3 4 1 3 8 8 7 5 4 3 4 3 2 3 4 3 7 12 10 9 7 11 6 8 12 10 12 12 9 8 7 7
10 12 14 15 16 7 6 3 3 5 4 5 3 3 3 6 5 4 4 4 1 4 2 1 3 2 4 3 13 23 11 8 11 12 6 8 7 7 6 6 7 8 7 8
11 12 13 12 12 7 6 6 10 5 5 4 3 2 5 4 2 3 2 3 4 3 3 1 3 1 2 6 14 9 10 15 15 15 14 16 14 11 10 6 4 5 7 7
16 14 10 6 6 4 2 5 11 4 5 3 2 4 3 3 2 2 4 3 1 1 3 4 4 3 7 13 11 10 10 9 13 12 13 14 12 13 5 4 4 7 7 8
14 6 4 4 3 9 2 7 5 5 4 3 1 1 2 4 2 1 3 1 3 1 5 2 3 6 15 12 13 13 9 9 10 5 7 7 6 3 10 14 12 13 10 2
3 2 3 2 4 3 3 2 1 1 1 2 3 4 3 2 4 3 2 3 2 2 4 3 3 5 4 5 7 5 6 8 12 11 8 7 6 7 13 10 9 7 5 9
5 6 5 2 1 1 1 2 1 2 3 3 4 5 4 1 3 3 3 2 2 4 3 3 3 4 5 7 6 8 10 12 3 3 7 8 11 9 8 5 5 4 6 10
3 3 3 2 1 2 4 3 2 1 3 3 2 2 3 2 2 1 3 3 4 2 1 4 3 1 2 4 5 8 10 11 11 10 6 5 3 4 4 8 8 9 9 7
4 3 4 3 2 3 4 3 4 4 3 3 3 2 3 2 2 2 2 4 2 2 2 3 0 1 2 5 6 7 8 8 8 7 7 7 6 8 8 7 8 10 10 6
2 2 3 4 3 0 2 2 2 2 2 3 3 3 3 1 1 1 1 3 3 4 3 1 2 1 3 3 4 5 6 6 6 5 5 5 6 7 8 6 6 7 9 8
1 1 2 2 3 3 2 1 1 0 2 2 3 2 2 4 3 3 5 3 5 4 2 2 2 2 2 4 3 4 5 6 5 4 4 4 5 5 5 7 7 7 7 7
2 3 1 2 0 2 2 1 2 1 4 2 2 3 6 1 3 4 4 5 3 3 2 2 2 1 3 4 4 2 3 4 4 2 3 3 4 5 6 7 5 6 6 5
Wind_Direction
204 198 189 189 180 167 169 175 171 162 246 180 140 208 153 221 205 215 167 212 256 222 185 195 193 194 169 175 153 158 174 140 193 195 353 141 121 157 143 150 210 192 182 260
191 189 188 179 171 169 142 146 113 339 246 200 167 145 175 216 169 162 172 194 175 244 222 195 203 128 13 96 113 153 172 184 102 8 340 357 94 66 103 108 84 188 152 252
188 188 178 175 171 171 106 143 128 317 83 170 150 158 161 146 16 139 310 179 122 283 225 314 137 118 118 72 95 89 89 94 187 213 154 141 158 168 87 117 106 187 233 298
106 110 116 115 112 136 92 157 147 212 166 155 153 126 144 148 145 57 339 318 118 136 193 62 85 88 121 38 108 73 97 125 85 80 100 84 139 252 99 100 157 174 238 227
73 96 94 95 96 94 83 119 127 99 92 126 119 118 147 139 123 150 158 80 88 78 77 259 173 130 137 157 117 98 70 112 108 109 177 157 262 239 165 212 245 250 267 271
85 82 79 78 96 75 78 16 134 135 127 135 116 139 140 160 139 46 178 129 101 89 104 86 12 62 92 130 130 117 116 127 103 276 210 54 312 265 206 170 208 197 238 259
88 83 82 90 126 150 126 194 126 115 108 98 108 119 111 124 112 128 60 79 104 177 255 24 38 42 42 77 77 119 135 120 100 128 99 230 233 65 227 213 259 325 279 306
76 72 56 62 71 77 86 47 100 95 86 115 119 139 125 102 91 86 110 32 106 130 79 68 66 4 29 341 149 129 121 118 123 154 197 311 277 188 199 131 285 216 159 297
69 67 61 58 56 56 76 48 153 97 123 171 151 142 147 131 135 107 66 73 66 76 84 69 141 173 150 182 201 196 123 60 112 160 164 203 241 128 99 101 271 145 151 9
66 63 59 58 57 59 86 33 18 77 100 15 114 109 154 118 103 108 126 144 89 73 95 108 122 217 180 164 172 163 128 99 176 145 205 276 223 186 64 163 243 189 170 168
61 60 56 54 47 44 61 6 4 102 81 10 39 98 116 116 116 134 179 74 10 63 112 155 186 183 218 165 210 172 165 166 190 93 163 263 192 212 168 204 202 182 193 179
66 57 54 47 43 54 63 38 357 48 77 127 17 94 47 90 149 126 33 131 139 165 105 137 105 179 149 168 215 173 199 179 180 181 209 212 208 179 166 175 199 194 172 223
61 58 47 51 60 54 68 76 350 54 78 17 49 48 4 50 56 85 115 61 139 146 150 153 165 145 101 168 233 182 233 156 188 95 253 212 225 232 184 200 181 154 206 223
80 68 54 50 55 57 57 62 327 72 89 98 330 11 65 89 70 67 74 114 57 88 76 98 115 140 146 206 223 187 207 57 188 267 266 278 252 208 193 172 158 167 201 243
97 91 81 73 67 72 69 57 15 51 119 149 185 320 27 110 95 84 77 84 76 62 55 73 206 317 63 298 53 235 182 183 190 248 201 212 235 243 193 224 250 237 218 234
98 88 75 56 41 73 78 59 340 349 94 86 70 286 257 91 102 102 100 103 92 91 131 190 232 237 127 192 239 250 226 217 202 250 195 233 256 251 255 259 255 255 252 230
93 81 70 52 47 52 73 117 236 6 61 76 39 351 306 127 86 35 61 46 113 109 124 126 178 228 154 222 258 262 252 232 238 240 237 263 247 248 223 221 239 231 213 202
94 84 77 62 47 59 33 5 16 42 78 67 81 314 31 30 34 54 17 62 31 0 180 43 176 228 175 253 252 281 246 243 244 239 237 252 261 262 261 221 219 232 240 186
101 84 51 42 33 42 61 81 51 39 97 95 70 124 223 354 85 94 22 106 66 227 213 227 118 212 227 239 249 241 235 216 238 238 240 247 243 244 222 231 260 240 221 199
96 48 42 25 360 120 76 13 25 20 17 42 162 36 178 103 101 100 95 345 215 221 229 113 204 250 246 259 254 250 239 220 225 221 254 235 189 264 313 306 306 265 240 212
57 90 68 23 135 42 48 80 42 36 325 185 222 190 132 262 120 150 197 164 197 241 254 151 233 260 242 314 311 342 304 260 231 211 221 184 207 211 263 259 246 242 212 188
155 116 100 101 154 99 296 175 174 187 234 181 171 192 179 181 114 104 174 205 147 249 143 213 248 268 20 14 10 11 6 358 43 187 219 202 236 235 237 218 177 124 104 122
66 70 84 118 100 195 147 215 259 263 188 192 166 83 110 57 104 152 162 208 237 89 156 225 234 35 6 8 6 28 21 30 42 48 50 36 43 57 93 109 111 106 92 96
81 134 134 169 203 245 197 192 195 240 125 104 106 89 135 176 100 170 152 244 116 292 247 242 91 342 45 46 40 46 27 25 38 33 32 33 49 70 76 90 107 113 115 108
105 133 196 206 227 297 230 252 54 337 111 78 44 31 90 78 110 195 125 11 260 223 229 296 254 237 111 76 34 43 44 35 36 23 37 48 54 73 83 86 97 108 114 115
278 223 15 300 53 335 355 352 293 78 96 48 60 125 91 199 184 163 210 215 219 236 179 197 168 165 131 121 75 46 45 42 41 51 52 63 68 79 84 88 99 109 118 122
280 285 179 149 245 206 228 259 239 175 84 161 136 168 217 140 205 215 181 207 220 217 227 195 158 207 154 129 107 71 57 59 61 39 62 75 92 92 96 100 98 99 94 113